Location: Balagbag Mahabang Kahoy
(14.1562°N, 120.9200°E)
Time: 04:52:56
(UTC+00:00)

FengYun 1-2 T - Pass Details

Date: 16 January 2026
Orbit: 844 x 880 km, 98.8° (Epoch: 14 February)

Event Time Altitude Azimuth Distance (km) Brightness Sun altitude
Rises 20:43:20 0° 2° (N) 3,415 7.2 -24.1°
Enters shadow 20:43:47 - 2° (N) 3,242 7.1 -23.9°
Exits shadow 20:51:39 45° 264° (W) 1,146 4.4 -22.1°
Drops below altitude 10° 20:56:13 10° 212° (SSW) 2,459 6.5 -21.1°
Sets 20:58:39 0° 206° (SSW) 3,392 7.3 -20.5°
